Regional Weather Roundup
Issued by NWS

Home | Current Version | Previous Version | Graphics & Text | Print | Product List | Glossary On
Versions: 1 2 3 4 5 6 7 8 9 10 11 12 13 14 15 16 17 18 19 20 21 22 23 24 25 26 27 28 29 30 31 32 33 34 35 36 37 38 39 40 41 42 43 44 45 46 47 48 49 50
000
ASUS43 KOAX 020210
RWRNE

WEATHER ROUNDUP FOR NEBRASKA
NATIONAL WEATHER SERVICE OMAHA NE
900 PM CDT WED OCT 01 2014

NOTES: SATELLITE DATA IS BEING USED TO AUGMENT CLOUD COVER ABOVE
       12000 FEET.
       "FAIR" INDICATES FEW OR NO CLOUDS BELOW 12,000 FEET WITH NO
       SIGNIFICANT WEATHER AND/OR OBSTRUCTIONS TO VISIBILITY.

  * THESE STATIONS DO NOT REPORT WEATHER SUCH AS RAIN...SNOW OR FOG.

NEZ001>004-019>022-054>056-020300-
NEBRASKA PANHANDLE

CITY           SKY/WX    TMP DP  RH WIND       PRES   REMARKS
SCOTTSBLUFF    CLOUDY    49  46  90 CALM      29.99R
ALLIANCE       LGT RAIN  49  45  86 N13       29.97R
CHADRON        CLOUDY    51  48  89 NE3       29.98R
KIMBALL        CLOUDY    45  43  95 N6        29.99F
SIDNEY         RAIN      47  43  86 NW18G26   30.02R FOG
$$

NEZ057>060-069>072-079>082-020300-
SOUTHWEST NEBRASKA

CITY           SKY/WX    TMP DP  RH WIND       PRES   REMARKS
NORTH PLATTE   PTCLDY    61  48  62 NE10      29.80R
IMPERIAL         N/A     56  46  69 NW33G52   29.89R
LEXINGTON      CLEAR     63  54  72 NE7       29.79R
MCCOOK         CLEAR     64  46  52 NE5       29.78R
OGALLALA       RAIN      55  51  86 NW35G47   29.88R
$$

NEZ005>010-023>029-035>040-094-020300-
NORTH CENTRAL NEBRASKA

CITY           SKY/WX    TMP DP  RH WIND       PRES   REMARKS
VALENTINE      LGT RAIN  55  48  77 N14G25    29.89R
AINSWORTH      PTCLDY    55  47  74 N7        29.86R
BROKEN BOW     CLEAR     64  50  60 NE9       29.80S
O`NEILL        CLEAR     60  52  76 N7        29.83S
ORD            PTCLDY    57  50  77 N6        29.79R
THEDFORD       CLOUDY    62  49  61 N13G20    29.85R
$$

NEZ041-046>049-061>064-073>077-083>087-020300-
SOUTH CENTRAL NEBRASKA

CITY           SKY/WX    TMP DP  RH WIND       PRES   REMARKS
GRAND ISLAND   LGT RAIN  66  55  67 NE9       29.80R
AURORA         LGT RAIN  66  59  78 NE6       29.78R
HASTINGS       TSTM      60  54  80 NE17G33   29.79R
HEBRON         MOCLDY    67  59  76 E3        29.76S
HOLDREGE       MOCLDY    65  55  69 E12       29.79R
KEARNEY *      CLOUDY    64  55  72 NE8       29.81R
YORK           MOCLDY    68  63  83 SE7       29.79R
$$

NEZ011>018-030>034-042>045-020300-
NORTHEAST NEBRASKA

CITY           SKY/WX    TMP DP  RH WIND       PRES   REMARKS
NORFOLK        CLEAR     64  53  67 NW3       29.80R
ALBION         CLEAR     63  51  66 N6        29.81R
BLAIR          PTCLDY    67  62  84 E3        29.78S
COLUMBUS *     MOCLDY    64  55  72 NE9       29.79R
FREMONT        PTCLDY    69  63  80 SE5       29.78S
TEKAMAH        CLEAR     65  62  90 S3        29.77R
WAYNE          CLEAR     59  55  87 CALM      29.80R
$$

NEZ050>053-065>068-078-088>093-020300-
SOUTHEAST NEBRASKA

CITY           SKY/WX    TMP DP  RH WIND       PRES   REMARKS
LINCOLN        PTCLDY    69  62  78 E6        29.78R
OMAHA EPPLEY   PTCLDY    67  62  84 E6        29.78R
BEATRICE       CLEAR     66  61  84 NE6       29.76S
FALLS CITY     MOCLDY    71  67  87 E7        29.74R
NEBRASKA CITY  PTCLDY    66  65  96 NE5       29.77S
PLATTSMOUTH      N/A     66  61  86 CALM      29.78R
$$

NEZ044-045-051>053-067-020300-
OMAHA AREA

CITY           SKY/WX    TMP DP  RH WIND       PRES   REMARKS
OMAHA EPPLEY   PTCLDY    67  62  84 E6        29.78R
BLAIR          PTCLDY    67  62  84 E3        29.78S
FREMONT        PTCLDY    69  63  80 SE5       29.78S
MILLARD        PTCLDY    65  63  95 CALM      29.77S FOG
OFFUTT AFB     PTCLDY    63  63 100 N2        29.77R
PLATTSMOUTH      N/A     66  61  86 CALM      29.78R
WAHOO          FAIR      67  62  84 CALM      29.78S
$$



USA.gov is the U.S. government's official web portal to all federal, state and local government web resources and services.